Content
SEND FEEDBACK

Daily
Averages
Monthly
Summary
United States of America

HADLEY, NEW YORK


Home > North America > United States > New York
Elevation: 808 feet     Latitude: 43 19N     Longitude: 073 56W

WEATHER
 
SELECT A DAY
Number of Records: 213,342;   Date Range: 1/1/95 - 9/18/14
 
SHARE

PRINT THIS DATA

[ ← Previous Day ]
WEATHER ALMANAC - JANUARY 31, 2013
[ Next Day → ]
[ °C ]   °F
Weather ElementAverageHighLow
Temperature44.7 °F53.6 °F (1:25 am)26.1 °F (11:53 pm)
Dewpoint38 °F52 °F (12:53 am)7 °F (7:53 pm)
Humidity80.4 %100 % (12:53 am)40 % (7:53 pm)
Barometer29.15 in29.60 in (11:53 pm)28.89 in (5:28 am)
Wind Speed8.3 mph21.9 mph (6:38 am)
Wind Gust41.4 mph (6:38 am)
Weather ElementAverage
Visibility5.1 mi
Wind DirectionSSW (188.4 °)

Weather ElementTotal
Precipitation1.70 in
Heating Degree Days25.2 (Base 65)
Averaged from 50 records on January 31, 2013
WEATHER CONDITIONS BREAKOUT
WIND DIRECTION BREAKOUT
WEATHER BY HOUR - JANUARY 31, 2013
[ °C ]   °F
Local TimeTemperatureDewpointHumidityBarometerVisibilityWind DirectionWind SpeedGust SpeedPrecipitationEventsConditions
12:53 AM52.0 °F52.0 °F100 %29.23 in4.0 miSouth (170°)8.1 mph0.04 inRainLight Rain
1:08 AM51.8 °F51.8 °F100 %29.19 in1.8 miSSE (160°)6.9 mph0.01 inRainLight Rain
1:13 AM51.8 °F51.8 °F100 %29.19 in0.8 miSouth (180°)5.8 mph0.01 inRainLight Rain
1:25 AM53.6 °F51.8 °F94 %29.18 in2.0 miSouth (180°)8.1 mph0.03 inRainLight Rain
1:34 AM51.8 °F51.8 °F100 %29.16 in4.0 miSouth (170°)6.9 mph0.04 inRainLight Rain
1:53 AM52.0 °F52.0 °F100 %29.16 in2.0 miSouth (180°)4.6 mph0.05 inRainLight Rain
2:00 AM51.8 °F51.8 °F100 %29.15 in1.2 miSSW (210°)5.8 mph0.00 inRainLight Rain
2:08 AM51.8 °F51.8 °F100 %29.13 in3.0 miSouth (180°)4.6 mph0.01 inRainLight Rain
2:16 AM51.8 °F51.8 °F100 %29.11 in1.8 miCalm0.02 inRainLight Rain
2:25 AM51.8 °F51.8 °F100 %29.10 in0.8 miCalm0.02 inRainLight Rain
2:30 AM51.8 °F51.8 °F100 %29.10 in1.0 miSouth (190°)3.5 mph0.02 inRainLight Rain
2:41 AM51.8 °F51.8 °F100 %29.09 in0.8 miSSW (200°)3.5 mph0.04 inRainLight Rain
2:51 AM51.8 °F50.0 °F94 %29.08 in1.8 miSW (220°)3.5 mph0.05 inRainLight Rain
2:53 AM52.0 °F51.1 °F97 %29.08 in1.8 miSW (230°)3.5 mph0.06 inRainLight Rain
3:00 AM51.8 °F51.8 °F100 %29.07 in2.0 miSSW (200°)5.8 mph0.01 inRainRain
3:14 AM51.8 °F51.8 °F100 %29.04 in3.0 miSouth (190°)4.6 mph0.04 inRainLight Rain
3:44 AM51.8 °F50.0 °F94 %28.99 in5.0 miSouth (170°)3.5 mph0.05 inRainLight Rain
3:53 AM50.0 °F50.0 °F100 %28.98 in2.5 miCalm0.06 inRainLight Rain
4:09 AM51.8 °F50.0 °F94 %28.97 in6.0 miSouth (180°)5.8 mph0.01 inRainLight Rain
4:21 AM50.0 °F50.0 °F100 %28.95 in3.0 miSSE (160°)5.8 mph0.03 inRainRain
4:28 AM50.0 °F50.0 °F100 %28.94 in1.5 miSouth (170°)4.6 mph0.04 inRainLight Rain
4:37 AM50.0 °F50.0 °F100 %28.92 in0.5 miSE (130°)4.6 mph0.06 inFog-RainLight Rain
4:53 AM50.0 °F48.9 °F96 %28.96 in1.0 miWSW (240°)5.8 mph0.07 inRainLight Rain
5:02 AM50.0 °F50.0 °F100 %28.94 in2.0 miCalm0.03 inRainRain
5:09 AM50.0 °F50.0 °F100 %28.94 in1.0 miCalm0.06 inRainRain
5:17 AM50.0 °F50.0 °F100 %28.92 in0.5 miCalm0.10 inFog-RainHeavy Rain
5:28 AM50.0 °F48.2 °F94 %28.89 in0.2 miCalm0.14 inFog-RainRain
5:36 AM50.0 °F48.2 °F94 %28.93 in0.8 miSSW (200°)6.9 mph0.15 inRainRain
5:43 AM50.0 °F48.2 °F94 %28.95 in2.0 miWest (270°)11.5 mph0.18 inRainRain
5:53 AM50.0 °F50.0 °F100 %28.92 in2.0 miSSW (210°)6.9 mph0.23 inRainRain
6:38 AM50.0 °F48.2 °F94 %28.94 in9.0 miWest (270°)21.9 mph41.4 mph0.01 inRainLight Rain
6:53 AM46.0 °F39.0 °F76 %28.97 in7.0 miWest (270°)12.7 mph29.9 mph0.02 inRainLight Rain
7:03 AM44.6 °F37.4 °F76 %28.96 in10.0 miWest (280°)15.0 mph28.8 mph0.00 inRainLight Rain
7:53 AM42.1 °F33.1 °F70 %29.03 in10.0 miWSW (250°)10.4 mph19.6 mph0.00 inOvercast
8:53 AM39.9 °F30.9 °F70 %29.12 in10.0 miWSW (250°)9.2 mphOvercast
9:53 AM39.0 °F25.0 °F57 %29.19 in10.0 miWSW (240°)15.0 mph28.8 mphOvercast
10:53 AM37.0 °F21.9 °F54 %29.23 in10.0 miSW (230°)18.4 mph31.1 mph0.01 inOvercast
11:53 AM37.0 °F18.0 °F46 %29.25 in10.0 miWSW (240°)21.9 mph36.8 mphOvercast
12:53 PM35.1 °F15.1 °F44 %29.30 in10.0 miWest (270°)13.8 mph32.2 mphOvercast
1:53 PM34.0 °F12.9 °F42 %29.33 in10.0 miWSW (250°)11.5 mph27.6 mphOvercast
2:53 PM36.0 °F14.0 °F41 %29.37 in10.0 miWest (260°)16.1 mph25.3 mphOvercast
3:53 PM32.0 °F15.8 °F51 %29.40 in10.0 miWSW (250°)20.7 mph34.5 mphMostly Cloudy
4:53 PM30.0 °F12.9 °F49 %29.46 in10.0 miWSW (250°)10.4 mph20.7 mphPartly Cloudy
5:53 PM30.0 °F10.0 °F43 %29.49 in10.0 miWSW (250°)21.9 mph38.0 mphOvercast
6:53 PM28.9 °F9.0 °F43 %29.53 in10.0 miWSW (240°)16.1 mph23.0 mphMostly Cloudy
7:53 PM28.9 °F7.0 °F40 %29.55 in10.0 miWSW (240°)9.2 mph25.3 mphPartly Cloudy
8:53 PM28.0 °F7.0 °F41 %29.56 in10.0 miWSW (250°)12.7 mph31.1 mphPartly Cloudy
9:53 PM27.0 °F7.0 °F43 %29.58 in10.0 miWSW (250°)9.2 mph16.1 mphScattered Clouds
10:53 PM27.0 °F9.0 °F47 %29.59 in10.0 miSW (230°)8.1 mphMostly Cloudy
11:53 PM26.1 °F7.0 °F44 %29.60 in10.0 miWest (260°)10.4 mph21.9 mphMostly Cloudy
Hourly data recorded from KGFL, located miles away from Hadley, New York







STORIES FROM OUR PARTNERS